N12KBM KLAX-KCRQ

Flight info

Callsign N12KBM
Flight time N/A
Altitude VFR
Route VFR
Aircraft PA28/L-VGD/C

Departure

Time N/A
Airport Los Angeles International Airport (KLAX)

Arrival

Time 2026-05-03 22:04
Airport McClellan-Palomar Airport (KCRQ)
Time Latitude Longitude Altitude Speed Heading
2026-05-03 21:49 33.39715 -117.63926 3807 ft 148 kts 153°
2026-05-03 21:49 33.38778 -117.63476 3852 ft 130 kts 160°
2026-05-03 21:50 33.38011 -117.63165 3900 ft 130 kts 158°
2026-05-03 21:50 33.37193 -117.62398 3508 ft 154 kts 135°
2026-05-03 21:50 33.36477 -117.61478 3597 ft 146 kts 118°
2026-05-03 21:50 33.36050 -117.60387 3679 ft 147 kts 111°
2026-05-03 21:51 33.35709 -117.59235 3796 ft 145 kts 108°
2026-05-03 21:51 33.35338 -117.58120 3877 ft 144 kts 113°
2026-05-03 21:51 33.35104 -117.56973 4030 ft 140 kts 93°
2026-05-03 21:51 33.35011 -117.55819 4207 ft 136 kts 97°
2026-05-03 21:52 33.34885 -117.54735 4502 ft 127 kts 96°
2026-05-03 21:52 33.34825 -117.53697 4716 ft 129 kts 94°
2026-05-03 21:52 33.34815 -117.52589 4747 ft 139 kts 90°
2026-05-03 21:52 33.34717 -117.51461 5013 ft 128 kts 96°
2026-05-03 21:53 33.34663 -117.50435 5153 ft 136 kts 92°
2026-05-03 21:53 33.34562 -117.49186 4942 ft 155 kts 98°
2026-05-03 21:53 33.34411 -117.47936 5073 ft 148 kts 98°
2026-05-03 21:53 33.34230 -117.46727 5110 ft 150 kts 102°
2026-05-03 21:54 33.34046 -117.45494 5128 ft 151 kts 102°
2026-05-03 21:54 33.33635 -117.44388 5224 ft 147 kts 135°
2026-05-03 21:54 33.32879 -117.43526 5115 ft 154 kts 135°
2026-05-03 21:54 33.32248 -117.42627 5503 ft 129 kts 127°
2026-05-03 21:55 33.31740 -117.41769 5766 ft 124 kts 119°
2026-05-03 21:55 33.31308 -117.40816 5613 ft 149 kts 122°
2026-05-03 21:55 33.30633 -117.39903 5466 ft 129 kts 128°
2026-05-03 21:55 33.30114 -117.39157 5533 ft 107 kts 134°
2026-05-03 21:56 33.29598 -117.38518 5384 ft 111 kts 136°
2026-05-03 21:56 33.29097 -117.37836 5173 ft 118 kts 110°
2026-05-03 21:56 33.28900 -117.36903 4946 ft 122 kts 103°
2026-05-03 21:56 33.28545 -117.35968 4620 ft 128 kts 121°
2026-05-03 21:57 33.27937 -117.35052 3861 ft 149 kts 128°
2026-05-03 21:57 33.27224 -117.34243 3631 ft 132 kts 136°
2026-05-03 21:57 33.26589 -117.33458 3225 ft 140 kts 133°
2026-05-03 21:57 33.25894 -117.32649 2950 ft 133 kts 139°
2026-05-03 21:58 33.25196 -117.31977 2776 ft 127 kts 142°
2026-05-03 21:58 33.24575 -117.31343 2813 ft 111 kts 140°
2026-05-03 21:58 33.23991 -117.30783 2769 ft 107 kts 142°
2026-05-03 21:58 33.23368 -117.30322 2721 ft 105 kts 152°
2026-05-03 21:59 33.22679 -117.29911 2574 ft 111 kts 149°
2026-05-03 21:59 33.22010 -117.29558 2642 ft 98 kts 161°
2026-05-03 21:59 33.21370 -117.29318 2675 ft 93 kts 162°
2026-05-03 21:59 33.20764 -117.29067 2715 ft 92 kts 159°
2026-05-03 22:00 33.20195 -117.28742 2750 ft 87 kts 156°
2026-05-03 22:00 33.19666 -117.28356 2741 ft 91 kts 148°
2026-05-03 22:00 33.19144 -117.27854 2635 ft 102 kts 131°
2026-05-03 22:00 33.18648 -117.27185 2462 ft 113 kts 131°
2026-05-03 22:01 33.18206 -117.26397 2360 ft 111 kts 118°
2026-05-03 22:01 33.17831 -117.25611 2305 ft 108 kts 118°
2026-05-03 22:01 33.17351 -117.24992 2312 ft 96 kts 148°
2026-05-03 22:01 33.16743 -117.24638 2163 ft 105 kts 154°
2026-05-03 22:02 33.15987 -117.24387 1965 ft 107 kts 169°
2026-05-03 22:02 33.15328 -117.24286 1857 ft 90 kts 182°
2026-05-03 22:02 33.14698 -117.24301 1610 ft 90 kts 183°
2026-05-03 22:02 33.14097 -117.24471 1353 ft 91 kts 201°
2026-05-03 22:03 33.13567 -117.24879 1083 ft 90 kts 226°
2026-05-03 22:03 33.13233 -117.25487 860 ft 86 kts 239°
2026-05-03 22:03 33.13099 -117.26171 646 ft 81 kts 268°
2026-05-03 22:03 33.13026 -117.26820 456 ft 75 kts 250°
2026-05-03 22:04 33.12929 -117.27390 342 ft 65 kts 250°
2026-05-03 22:04 33.12834 -117.27830 318 ft 39 kts 260°
2026-05-03 22:04 33.12802 -117.27937 319 ft 0 kts 217°
2026-05-03 22:04 33.12755 -117.27938 319 ft 15 kts 91°
2026-05-03 22:05 33.12787 -117.27728 319 ft 29 kts 81°
2026-05-03 22:05 33.12756 -117.27667 321 ft 9 kts 163°
2026-05-03 22:05 33.12748 -117.27645 322 ft 0 kts 76°